Leadville, CO

7:32 AM MST on February 22, 2018 (GMT -0700)
Lake County

Weather History for KLXV - September, 2013

Change the Weather History Date:

Saturday, September 7, 2013

  Actual Average Record
Temperature  
Mean Temperature 55 °F -  
Max Temperature 72 °F 63 °F 74 °F (1977)
Min Temperature 38 °F 33 °F 25 °F (2010)
Degree Days  
Heating Degree Days 10 17  
Month to date heating degree days 58 111  
Since 1 July heating degree days 660 833  
Cooling Degree Days 0 0  
Month to date cooling degree days 0 0  
Year to date cooling degree days 0 0  
Growing Degree Days 5 (Base 50)    
Moisture  
Dew Point 41 °F    
Average Humidity 60    
Maximum Humidity 100    
Minimum Humidity 20    
Precipitation  
Precipitation 0.20 in 0.04 in 0.76 in (2011)
Month to date precipitation 0.96 0.32  
Year to date precipitation 12.60 9.27  
Sea Level Pressure  
Sea Level Pressure 30.07 in    
Wind  
Wind Speed 5 mph (NE)    
Max Wind Speed 18 mph    
Max Gust Speed 23 mph    
Visibility 9 miles    
Events Rain , Thunderstorm    
T = Trace of Precipitation, MM = Missing Value Source: NWS Daily Summary

Daily Weather History Graph

Daily Weather History Graph

Search for Another Location

Airport or City:

Trip Planner

Search our weather history database for the weather conditions in past years. The results will help you decide how hot, cold, wet, or windy it might be!

Date:

Astronomy

Sep. 07, 2013 Rise Set
Actual Time 6:39 AM MDT 7:26 PM MDT
Civil Twilight 6:12 AM MDT 7:53 PM MDT
Nautical Twilight 5:40 AM MDT 8:25 PM MDT
Astronomical Twilight 5:07 AM MDT 8:58 PM MDT
Moon 8:55 AM MDT (9/7) 8:27 PM MDT (9/7)
Length of Visible Light 13h 40m
Length of Day
12h 46m
Waxing Crescent, 5% of the Moon is Illuminated
Sep 7
Waxing Crescent
Sep 12
First Quarter
Sep 19
Full
Sep 26
Last Quarter
Oct 4
New

Hourly Weather History & Observations

Time (MDT) Temp. Windchill Dew Point Humidity Pressure Visibility Wind Dir Wind Speed Gust Speed Precip Events Conditions
12:53 AM 48.9 °F - 45.0 °F 86% 30.00 in 10.0 mi North 5.8 mph - N/A   Overcast
1:53 AM 48.0 °F - 46.0 °F 93% 30.00 in 10.0 mi NE 3.5 mph - N/A   Clear
2:53 AM 45.0 °F 41.8 °F 43.0 °F 93% 30.01 in 10.0 mi NE 5.8 mph - N/A   Clear
3:53 AM 43.0 °F 37.7 °F 42.1 °F 97% 30.04 in 10.0 mi ENE 9.2 mph - N/A   Clear
4:53 AM 42.1 °F - 39.9 °F 92% 30.06 in 10.0 mi Calm Calm - N/A   Clear
5:53 AM 39.9 °F 37.8 °F 37.9 °F 93% 30.08 in 10.0 mi NE 3.5 mph - N/A   Clear
6:53 AM 39.9 °F 37.8 °F 37.9 °F 93% 30.14 in 10.0 mi NNE 3.5 mph - N/A   Clear
7:53 AM 46.9 °F - 42.1 °F 83% 30.12 in 10.0 mi Calm Calm - N/A   Clear
8:53 AM 53.1 °F - 43.0 °F 69% 30.09 in 10.0 mi Calm Calm - N/A   Clear
9:53 AM 59.0 °F - 42.1 °F 53% 30.07 in 10.0 mi Calm Calm - N/A   Clear
10:53 AM 64.9 °F - 37.9 °F 37% 30.02 in 10.0 mi Calm Calm - N/A   Clear
11:53 AM 68.0 °F - 37.0 °F 32% 29.99 in 10.0 mi Calm Calm - N/A   Clear
12:53 PM 70.0 °F - 36.0 °F 29% 29.95 in 10.0 mi Variable 6.9 mph - N/A   Partly Cloudy
1:53 PM 71.1 °F - 33.1 °F 25% 29.92 in 10.0 mi Variable 6.9 mph 17.3 mph N/A   Clear
2:53 PM 71.1 °F - 28.0 °F 20% 29.92 in 10.0 mi SSE 10.4 mph 17.3 mph N/A   Mostly Cloudy
3:53 PM 64.9 °F - 39.0 °F 39% 29.96 in 10.0 mi East 4.6 mph - N/A   Overcast
4:36 PM 57.2 °F - 42.8 °F 59% 30.45 in 2.5 mi NW 18.4 mph 23.0 mph 0.03 in Rain , Thunderstorm Heavy Thunderstorms and Rain
4:53 PM 57.0 °F - 43.0 °F 59% 30.03 in 2.0 mi West 6.9 mph - 0.17 in Rain , Thunderstorm Light Thunderstorms and Rain
5:08 PM 53.6 °F - 46.4 °F 77% 30.47 in 10.0 mi Variable 6.9 mph - 0.03 in Rain , Thunderstorm Light Thunderstorms and Rain
5:31 PM 55.4 °F - 42.8 °F 63% 30.47 in 10.0 mi NE 10.4 mph - 0.03 in   Overcast
5:53 PM 55.9 °F - 45.0 °F 67% 30.05 in 10.0 mi NE 9.2 mph - 0.03 in   Scattered Clouds
6:53 PM 57.0 °F - 45.0 °F 64% 30.04 in 10.0 mi North 11.5 mph - 0.00 in Rain Light Rain
7:53 PM 54.0 °F - 44.1 °F 69% 30.02 in 10.0 mi North 11.5 mph - 0.00 in   Overcast
8:53 PM 54.0 °F - 42.1 °F 64% 30.00 in 10.0 mi NNE 6.9 mph - N/A   Scattered Clouds
9:53 PM 53.1 °F - 43.0 °F 69% 29.99 in 10.0 mi East 4.6 mph - N/A   Overcast
10:53 PM 51.1 °F - 42.1 °F 71% 29.96 in 10.0 mi NE 3.5 mph - N/A   Mostly Cloudy
11:53 PM 46.9 °F - 41.0 °F 80% 29.95 in 10.0 mi NNE 4.6 mph - N/A   Partly Cloudy